Weather in Nartas

Russia / Mari El Republic     56°49′23″N   49°51′29″E
temp.,
°C
wind,
m/s
gust,
m/s
humid.,
%
clouds,
%
prec.,
mm/h
press.,
hPa
HPBL,
m
25 february, thu
thu2500:00−26wnw229765 0.0 103420
03:00−27sw229849 0.0 103319
06:00−25ssw239679 0.0 103144
09:00−22s479389 0.0 1029237
12:00−19sse5989100 0.0 1026339
15:00−18sse61194100 0.1 1023429
18:00−18sse61295100 0.4 1021542
21:00−17sse51194100 0.8 1020570
26 february, fri
fri2600:00−17sse51095100 0.3 1018518
03:00−18sse51095100 0.7 1018480
06:00−18sse4996100 0.1 1016341
09:00−16sse599398 0.3 1016433
12:00−14se6991100 0.1 1014520
15:00−12se61191100 0.2 1012575
18:00−12se71293100 0.2 1007517
21:00−11se81494100 1.1 1002513
27 february, sat
sat2700:00−10se81494100 4.5 997600
03:00−10ese61195100 8.4 995445
06:00−9e4795100 2.1 993276
09:00−9ene4595100 3.4 994253
12:00−8ne4695100 1.1 994338
15:00−8nne5794100 1.9 996427
18:00−9nne5995100 0.7 997415
21:00−12nne61093100 0.9 1000356
28 february, sun
sun2800:00−15n51095100 0.1 1001319
03:00−17n51095100 0.1 1003287
06:00−20n5109694 0.0 1005245
09:00−20n599482 0.1 1007283
12:00−17n589282 0.0 1009409
15:00−15n6109191 0.0 1010515
18:00−17n4109597 0.0 1012272
21:00−18n4109795 0.1 1015227
1 march, mon
mon100:00−21n489853 0.0 1017137
03:00−22n479829 0.0 1019118
06:00−23n35985 0.0 102185
09:00−20n36969 0.0 1022207
12:00−16nnw349055 0.0 1022265
15:00−14nw359247 0.0 1022272
18:00−18w23938 0.0 102120
21:00−16sw369553 0.0 1019120